Torna al catalogo

STARLINK-3987

AttivoComunicazioniVLEO
NORAD 52699·PAYLOAD·🇺🇸 United States

Lanciato May 18, 2022 da Cape Canaveral Space Force Station

Loading…

Prossimi Passaggi (prossime 24 ore)

TLE

AggiornatoSource: CelesTrak SupGP

Epoca: Sep 14, 2026, 21:15 UTC

1 52699C 22053AV  26257.88590278 -.00599050  00000+0 -17242-1 0  2575
2 52699  53.1599 355.7127 0001012  75.2085 356.1167 15.35511208    17

Traccia STARLINK-3987 in tempo reale con AllMySat

Download on the App Store